SCP
0 0 0 0 0 0 0 0 0 0 0 0 0 0 0 0 0 0 0 0 0 0 0 1 1 1 1 2 1 1 1 1 1 0 0 0 0 0 0 0 0 0 0 0 0 0 0 0 0
0 0 0 0 0 0 0 0 0 0 0 0 0 0 0 0 0 0 0 0 0 0 0 1 1 1 2 2 2 1 1 1 1 0 0 0 0 0 0 0 0 0 0 0 0 0 0 0 0
0 0 0 0 0 0 0 0 0 0 0 0 0 0 0 0 0 0 0 0 0 0 0 1 1 1 2 2 2 2 1 1 1 0 0 0 0 0 0 0 0 0 0 0 0 0 0 0 0
0 0 0 0 0 0 0 0 0 0 0 0 0 0 0 0 0 0 0 0 0 0 0 1 1 1 2 2 2 2 1 1 0 0 0 0 0 0 0 0 0 0 0 0 0 0 0 0 0
0 0 0 0 0 0 0 0 0 0 0 0 0 0 0 0 0 0 1 1 0 0 0 1 1 1 2 2 2 1 1 1 0 0 0 0 0 0 0 0 0 0 0 0 0 0 0 0 0
0 0 0 0 0 0 0 0 0 0 0 0 0 0 0 0 1 1 1 1 0 0 0 1 1 1 1 1 1 1 1 1 0 0 0 0 0 0 0 0 0 0 0 0 0 0 0 0 0
0 0 0 0 0 0 0 0 0 0 0 0 0 0 0 0 1 2 2 1 1 0 1 1 1 1 1 1 1 1 1 1 0 0 0 0 0 0 0 0 0 0 0 0 0 0 0 0 0
0 0 0 0 0 0 0 0 0 0 0 0 0 0 0 1 2 2 2 1 1 1 1 1 1 1 1 1 2 1 1 1 0 0 0 0 0 0 0 0 0 0 0 0 0 0 0 0 0
0 0 0 0 0 0 0 0 0 0 0 0 0 0 0 1 2 3 2 1 1 1 1 1 1 1 1 1 1 1 1 0 0 0 0 0 0 0 0 0 0 0 0 0 0 0 0 0 0
0 0 0 0 0 0 0 0 0 0 0 0 0 0 0 1 3 4 3 2 1 1 2 2 1 1 1 1 1 0 0 0 0 0 0 0 0 0 0 0 0 0 0 0 0 0 0 0 0
0 0 0 0 0 0 0 0 0 0 0 0 0 0 0 1 3 4 4 3 2 2 3 3 2 1 1 1 0 0 0 0 0 0 0 0 0 0 0 0 0 0 0 0 0 0 0 0 0
0 0 0 0 0 0 0 0 0 0 0 0 0 0 0 1 2 4 5 4 4 3 3 3 2 1 1 0 0 0 0 0 0 0 0 0 0 0 0 0 0 0 0 0 0 0 0 0 0
0 0 0 0 0 0 0 0 0 0 0 0 0 0 0 0 1 4 6 6 5 4 3 3 2 1 1 0 0 0 0 0 0 0 0 0 0 0 0 0 0 0 0 0 0 0 0 0 0
0 0 0 0 0 0 0 0 0 0 0 0 0 0 0 0 0 2 5 6 5 4 4 3 2 1 0 0 0 0 0 0 0 0 0 0 0 0 0 0 0 0 0 0 0 0 0 0 0
0 0 0 0 0 0 0 0 0 0 0 0 0 0 0 0 0 1 3 5 5 5 4 3 2 1 0 0 0 0 0 0 0 0 0 0 0 0 0 0 0 0 0 0 0 0 0 0 0
0 0 0 0 0 0 0 0 0 0 0 0 0 0 0 0 0 0 1 3 4 5 4 3 2 1 0 0 0 0 0 0 0 0 0 0 0 0 0 0 0 0 0 0 0 0 0 0 0
0 0 0 0 0 0 0 0 0 0 0 0 0 0 0 0 0 0 1 2 3 4 4 3 2 1 0 0 0 0 0 0 0 0 0 0 0 0 0 0 0 0 0 0 0 0 0 0 0
0 0 0 0 0 0 0 0 0 0 0 0 0 0 0 0 0 0 0 1 2 3 4 3 2 1 0 0 0 0 0 0 0 0 0 0 0 0 0 0 0 0 0 0 0 0 0 0 0
0 0 0 0 0 0 0 0 0 0 0 0 0 0 0 0 0 0 0 1 2 3 3 3 2 1 0 0 0 0 0 0 0 0 0 0 0 0 0 0 0 0 0 0 0 0 0 0 0
0 0 0 0 0 0 0 0 0 0 0 0 0 0 0 0 0 0 0 0 1 2 2 2 2 1 0 0 0 0 0 0 0 0 0 0 0 0 0 0 0 0 0 0 0 0 0 0 0
0 0 0 0 0 0 0 0 0 0 0 0 0 0 0 0 0 0 0 0 1 1 2 2 2 1 0 0 0 0 0 0 0 0 0 0 0 0 0 0 0 0 0 0 0 0 0 0 0
0 0 0 0 0 0 0 0 0 0 0 0 0 0 0 0 0 0 0 0 0 1 2 3 2 1 1 1 0 0 0 0 0 0 0 0 0 0 0 0 0 0 0 0 0 0 0 0 0
0 0 0 0 0 0 0 0 0 0 0 0 0 0 0 0 0 0 0 0 0 1 2 3 3 2 1 1 0 0 0 0 0 0 0 0 0 0 0 0 0 0 0 0 0 0 0 0 0
0 0 0 0 0 0 0 0 0 0 0 0 0 0 0 0 0 0 0 0 0 0 2 3 3 2 2 1 1 0 0 0 0 0 0 0 0 0 0 0 0 0 0 0 0 0 0 0 0
0 0 0 0 0 0 0 0 0 0 0 0 0 0 0 0 0 0 0 0 0 0 1 3 3 3 2 1 1 1 0 0 0 0 0 0 0 0 0 0 0 0 0 0 0 0 0 0 0
0 0 0 0 0 0 0 0 0 0 0 0 0 0 0 0 0 0 0 0 0 0 1 2 3 3 3 2 1 1 0 0 0 0 0 0 0 0 0 0 0 0 0 0 0 0 0 0 0
0 0 0 0 0 0 0 0 0 0 0 0 0 0 0 0 0 0 0 0 0 0 1 2 3 3 3 2 1 1 1 0 0 0 0 0 0 0 0 0 0 0 0 0 0 0 0 0 0
0 0 0 0 0 0 0 0 0 0 0 0 0 0 0 0 0 0 0 0 0 0 0 1 2 3 3 2 2 1 1 0 0 0 0 0 0 0 0 0 0 0 0 0 0 0 0 0 0
0 0 0 0 0 0 0 0 0 0 0 0 0 0 0 0 0 0 0 0 0 0 0 1 2 3 3 3 2 1 1 1 0 0 0 0 0 0 0 0 0 0 0 0 0 0 0 0 0
0 0 0 0 0 0 0 0 0 0 0 0 0 0 0 0 0 0 0 0 0 0 0 0 1 2 3 3 2 2 1 1 1 0 0 0 0 0 0 0 0 0 0 0 0 0 0 0 0
Wind_Speed
1 2 3 4 5 3 3 5 3 2 1 2 3 7 7 4 3 3 2 11 13 14 12 16 18 18 17 16 15 15 14 14 13 13 12 12 12 12 12 11 11 11 12 12 12 12 12 12 12
1 2 4 5 4 1 5 4 4 5 5 3 3 5 5 2 2 7 6 11 16 15 12 13 18 18 18 17 16 15 15 14 13 13 12 12 12 12 11 11 11 11 11 11 11 11 11 11 11
0 2 4 4 3 6 5 4 6 4 4 3 2 3 6 6 6 8 8 15 14 12 11 13 19 19 18 17 16 16 15 14 14 13 12 12 12 12 11 11 11 11 10 10 10 10 10 10 10
2 3 4 2 6 7 6 5 3 2 1 2 4 4 2 4 8 8 14 16 15 11 10 13 20 19 18 18 17 16 15 14 14 13 12 12 12 11 11 11 10 10 10 9 9 9 9 8 8
3 4 1 2 7 6 5 6 4 3 3 2 4 4 1 2 4 13 17 17 16 12 9 12 19 20 19 18 17 16 15 15 14 13 12 12 12 11 11 10 10 9 9 9 9 8 8 8 7
3 3 2 5 8 5 5 6 4 3 4 2 5 5 2 1 10 14 15 15 15 14 12 12 19 19 19 18 17 17 16 15 14 13 13 12 12 11 11 10 9 9 8 8 8 7 7 6 6
3 3 4 5 5 6 6 4 5 5 5 6 7 6 2 3 8 12 12 12 12 13 12 9 11 13 17 18 17 17 16 15 15 14 13 12 12 11 10 10 9 9 8 7 7 6 5 5 5
4 3 3 4 5 7 4 3 4 6 6 4 7 9 7 8 8 9 10 10 11 11 11 9 8 9 9 10 15 15 15 15 14 13 12 11 11 10 10 9 9 8 7 7 6 5 4 3 3
4 2 6 5 5 5 3 2 2 2 3 1 3 8 8 12 11 11 9 8 10 11 9 10 9 9 8 8 12 12 13 13 13 10 12 9 5 5 6 7 9 8 8 6 5 4 3 1 1
4 6 10 5 4 3 4 3 3 1 0 0 1 2 6 14 15 15 14 15 15 15 13 11 11 10 9 9 7 6 6 7 7 6 6 5 4 4 5 8 9 8 7 6 5 4 2 0 1
5 7 6 6 5 4 5 5 3 2 5 6 6 6 9 12 14 15 16 16 17 16 15 13 13 12 11 7 6 5 4 5 6 7 7 5 4 3 3 3 4 4 4 2 2 1 0 0 1
5 7 5 6 5 4 6 5 5 6 9 7 8 12 13 14 17 17 16 15 13 14 16 15 14 12 11 9 7 7 5 5 5 7 7 5 4 4 4 3 3 3 2 2 2 1 2 1 2
8 8 7 7 7 7 6 8 7 9 10 6 4 10 14 16 16 15 14 13 12 15 16 16 15 14 13 10 8 8 7 7 7 6 7 7 6 5 5 4 3 4 3 3 3 2 2 2 2
6 6 8 9 8 6 8 9 7 12 7 5 6 11 14 16 16 12 11 12 14 15 16 16 17 16 14 12 10 9 9 8 7 7 8 9 7 6 6 5 5 4 4 4 4 4 3 2 2
5 6 8 7 7 6 4 11 12 13 6 7 8 10 13 14 13 14 15 16 17 16 16 17 17 16 16 14 12 9 9 9 8 8 9 10 9 8 7 6 5 5 5 5 3 3 2 2 2
3 4 8 8 6 6 5 15 13 9 7 10 10 10 11 13 14 15 15 15 15 14 16 17 16 16 16 14 12 9 9 9 8 8 8 10 11 10 8 6 6 6 5 4 4 3 2 2 2
3 6 8 8 6 6 8 13 11 7 8 11 11 10 11 12 12 14 14 15 15 16 17 17 16 18 17 15 11 10 9 9 8 8 8 10 11 11 8 7 6 6 5 4 4 3 3 3 3
6 6 6 8 5 6 10 15 13 8 9 11 11 10 11 13 15 13 14 15 15 15 16 17 17 17 15 11 8 7 7 8 7 8 9 10 10 11 9 7 7 7 5 4 4 4 3 3 3
6 6 8 8 6 7 13 18 17 12 9 11 12 11 12 14 13 11 12 12 12 13 15 17 16 15 13 11 10 10 10 8 8 8 10 11 10 11 9 7 7 7 6 7 6 4 4 3 2
8 9 9 8 5 6 10 15 14 11 12 13 13 13 14 13 10 10 10 11 13 15 15 16 17 17 16 13 11 9 8 7 7 6 9 11 11 11 10 9 8 8 6 6 6 5 3 3 3
11 11 10 8 6 5 6 11 11 10 10 11 12 12 12 14 13 11 10 11 12 14 16 16 17 17 17 13 8 5 4 3 5 7 8 10 11 11 10 11 9 8 8 8 8 7 7 5 3
12 9 9 8 5 6 4 8 10 8 10 12 13 12 13 12 12 11 11 11 12 14 14 15 16 16 16 14 12 13 11 11 11 8 8 8 11 11 11 11 10 9 8 8 8 8 6 6 4
7 5 7 8 6 7 6 7 10 5 10 12 12 12 12 11 11 11 12 13 12 12 12 13 14 15 15 15 16 15 12 10 6 6 8 9 9 10 11 11 10 10 9 9 8 8 7 6 6
5 2 3 3 3 10 11 9 10 7 11 10 10 10 11 10 10 10 9 8 8 9 10 11 13 14 15 16 16 16 15 11 9 9 10 9 7 8 10 10 10 10 9 9 9 9 9 7 7
4 4 2 4 5 10 6 8 12 10 10 10 11 11 10 8 7 7 7 8 8 9 10 11 13 14 14 15 16 16 16 15 15 13 12 10 7 8 11 10 10 9 9 9 8 8 8 8 8
9 9 8 7 6 5 4 10 10 9 8 8 9 8 6 6 6 7 8 9 8 10 11 12 14 13 14 15 15 14 14 11 11 12 10 11 9 9 9 10 10 10 9 9 8 7 8 7 8
7 9 6 3 3 4 7 8 9 6 6 6 6 6 7 7 7 7 7 7 8 9 11 13 14 13 14 15 14 13 13 12 11 10 10 8 7 7 9 10 10 9 9 9 9 7 8 7 7
7 6 4 6 6 7 7 7 7 5 7 7 6 7 8 7 6 6 6 7 7 8 8 9 11 13 12 13 13 11 13 13 11 10 11 10 9 8 9 9 10 9 9 9 9 7 6 7 7
6 7 6 5 5 6 6 9 8 9 8 8 8 7 6 7 7 7 7 6 6 5 6 7 8 9 10 12 12 11 11 11 10 10 11 11 9 9 10 10 10 10 9 9 8 8 7 8 7
7 8 8 7 7 6 6 10 5 5 5 5 6 6 5 6 6 5 5 4 4 5 6 7 8 9 10 10 10 11 10 10 10 11 10 10 10 10 10 9 10 9 9 9 10 9 9 9 9
Wind_Direction
322 91 90 64 55 50 250 248 215 205 192 210 141 115 125 139 160 178 145 144 143 152 161 159 157 153 149 145 142 140 136 132 127 125 123 120 115 111 107 105 101 97 93 91 88 87 86 84 83
95 109 67 65 94 203 259 245 210 219 198 172 117 111 108 131 147 129 134 154 149 153 156 157 158 154 151 147 145 144 140 136 132 130 128 125 120 115 112 109 107 103 98 95 91 90 90 87 82
138 115 95 90 156 200 228 225 205 217 216 176 105 99 144 163 163 165 165 152 148 152 154 159 159 156 154 151 149 147 145 142 139 137 134 130 126 121 117 114 112 109 105 100 97 94 92 87 82
78 59 63 103 234 229 213 224 204 167 260 158 126 100 144 181 175 169 148 149 148 152 154 162 161 160 157 155 153 151 150 148 145 143 139 135 130 126 123 120 117 114 111 107 102 98 94 88 82
70 87 87 255 247 249 231 227 207 193 202 186 128 135 175 325 147 140 146 151 151 153 156 165 164 162 161 159 158 156 155 152 150 149 146 142 137 132 129 126 124 121 116 112 108 102 97 91 85
65 84 150 238 251 258 251 230 198 204 225 213 134 141 200 110 140 149 152 154 155 156 159 166 167 165 164 163 162 161 160 157 156 155 152 148 144 141 138 137 133 130 124 119 113 108 101 94 87
132 137 212 230 253 262 250 218 183 193 215 213 151 137 197 188 169 152 149 149 153 157 160 166 168 167 168 167 166 165 164 162 162 161 158 154 151 149 146 145 142 137 131 126 122 117 110 99 85
149 140 238 237 236 251 250 219 200 179 215 207 142 151 195 200 174 142 137 145 152 159 164 166 165 163 165 166 168 168 168 166 166 164 160 159 159 155 153 152 150 147 142 140 135 129 124 107 79
121 152 234 228 221 248 270 264 264 203 161 153 167 182 200 155 146 137 136 146 160 167 171 169 166 164 162 164 171 169 170 170 167 165 163 159 151 149 155 161 163 161 159 159 156 152 150 135 17
145 208 231 229 222 249 281 273 267 311 268 224 13 25 130 145 157 160 165 168 174 177 180 176 173 170 165 171 167 165 168 168 164 161 161 153 153 164 168 177 177 175 175 178 180 182 179 98 344
183 212 234 248 252 257 271 279 273 205 243 220 198 179 155 164 171 176 179 179 181 179 180 180 178 174 172 170 165 168 165 164 166 167 167 163 162 171 174 173 183 184 183 184 203 221 256 230 243
226 239 232 248 252 246 253 266 271 229 235 228 203 173 169 178 183 187 187 187 180 177 184 181 179 177 177 173 173 173 172 175 179 181 175 167 168 175 178 182 187 184 181 187 203 209 228 237 236
239 251 254 251 251 248 252 251 255 254 251 247 206 174 183 189 196 197 192 185 179 183 185 183 181 180 179 176 178 180 182 184 186 184 183 177 176 181 183 190 191 191 187 192 200 209 217 221 223
236 245 258 258 255 252 248 261 252 255 252 243 203 197 199 200 201 199 193 190 189 189 187 183 184 183 180 181 183 184 186 187 187 190 190 185 182 182 184 189 190 195 195 196 195 199 199 209 205
240 264 279 258 241 243 253 272 245 248 250 245 233 214 211 213 208 204 200 196 194 192 187 185 185 183 183 185 186 185 187 186 191 194 192 189 184 183 184 185 189 196 193 190 188 194 188 199 202
224 234 255 258 229 224 206 258 258 251 239 244 244 234 222 222 216 213 208 203 197 191 189 188 186 185 186 187 186 185 186 188 192 192 191 191 188 184 182 185 193 190 181 179 180 184 186 204 207
221 223 238 263 230 211 209 252 263 248 230 242 243 238 231 229 227 221 213 207 200 195 190 188 187 186 188 188 186 185 185 189 191 190 191 192 190 186 183 189 192 182 179 184 187 186 182 199 215
218 223 234 240 246 216 233 251 265 261 237 241 245 242 235 231 230 222 215 209 202 196 192 190 189 187 185 183 180 180 186 191 191 192 194 191 191 188 185 189 189 180 180 189 189 190 191 195 201
214 227 243 251 246 228 240 251 259 258 252 248 245 242 238 236 236 225 215 206 198 193 191 190 189 185 180 181 184 186 193 193 194 196 195 193 192 189 188 190 188 185 191 195 190 182 194 206 170
232 245 254 274 265 240 253 259 260 250 243 242 240 237 237 240 241 231 217 202 196 193 192 191 190 186 186 189 189 189 185 188 192 193 196 196 193 191 193 191 191 191 193 195 193 183 181 198 173
235 233 240 258 305 291 282 279 263 258 245 247 243 237 234 231 230 226 215 207 199 195 193 191 192 189 190 184 173 158 151 160 182 196 199 200 196 195 195 195 193 193 192 200 200 192 186 201 206
241 233 241 251 265 271 242 274 268 257 262 252 246 239 235 233 228 222 214 209 203 201 194 192 190 189 188 181 178 177 185 196 200 196 197 197 198 197 197 195 195 196 197 201 202 197 194 188 206
232 231 239 244 240 259 246 255 272 257 255 254 247 242 239 233 224 219 213 210 205 196 190 190 187 189 186 185 187 188 197 202 191 184 191 199 202 202 200 198 197 199 200 203 201 197 198 197 200
223 233 266 253 222 250 231 226 268 231 231 248 250 244 239 234 227 223 219 208 203 191 187 185 185 189 187 188 190 193 196 192 184 191 196 201 202 204 204 201 201 203 202 202 203 201 201 204 205
191 163 227 234 224 242 213 218 250 240 235 232 242 244 238 232 223 219 210 204 201 192 189 186 186 190 189 190 194 197 198 195 196 197 200 200 201 206 207 201 202 203 203 201 198 201 206 204 205
205 188 197 212 225 262 223 229 248 247 249 249 249 250 243 231 222 217 212 202 199 198 192 189 191 193 190 192 197 198 197 198 203 202 200 203 207 209 201 200 202 203 200 199 197 204 208 205 209
190 210 206 214 260 257 248 266 291 273 267 261 257 250 244 234 226 221 216 206 200 199 199 194 194 195 194 195 195 197 197 199 203 200 200 203 205 199 195 197 200 201 199 198 196 206 209 205 211
189 174 162 194 217 240 261 250 242 253 255 260 258 246 246 244 238 232 221 214 210 207 203 197 197 197 196 195 196 198 200 202 201 196 200 202 201 195 190 195 198 199 199 198 197 204 206 205 213
190 190 195 200 207 209 247 256 223 219 233 242 252 252 251 247 242 235 229 220 213 207 199 199 199 199 199 198 198 198 199 199 196 200 203 202 197 194 194 195 197 198 199 197 198 205 200 207 213
209 205 190 206 227 219 235 263 254 235 251 244 255 265 270 263 251 245 234 222 216 213 210 206 203 203 204 200 197 199 198 194 196 202 202 197 196 195 195 192 195 198 198 196 199 203 200 204 210